Weather History for Poplar Bluff, MO

Change the Weather History Date:

Wednesday, August 20, 2014

  Actual Average Record
Temperature  
Mean Temperature 82 °F -  
Max Temperature 93 °F 88 °F 102 °F (1936)
Min Temperature 71 °F 66 °F 51 °F (1967)
Cooling Degree Days 17    
Growing Degree Days 32 (Base 50)    
Moisture  
Dew Point 71 °F    
Average Humidity 68    
Maximum Humidity 87    
Minimum Humidity 44    
Precipitation  
Precipitation 0.00 in - - ()
Sea Level Pressure  
Sea Level Pressure 29.91 in    
Wind  
Wind Speed 6 mph (SSW)    
Max Wind Speed 12 mph    
Max Gust Speed -    
Visibility 10 miles    
Events      
Averages and records for this station are not official NWS values.
T = Trace of Precipitation, MM = Missing Value Source: NWS Daily Summary

Daily Weather History Graph

Daily Weather History Graph

Search for Another Location

Airport:

Trip Planner

Search our weather history database for the weather conditions in past years. The results will help you decide how hot, cold, wet, or windy it might be!

Date:

Astronomy

Aug. 20, 2014 Rise Set
Actual Time 6:22 AM CDT 7:46 PM CDT
Civil Twilight 5:55 AM CDT 8:13 PM CDT
Nautical Twilight 5:22 AM CDT 8:45 PM CDT
Astronomical Twilight 4:48 AM CDT 9:19 PM CDT
Moon 2:05 AM CDT (8/20) 4:28 PM CDT (8/20)
Length of Visible Light 14h 17m
Length of Day
13h 23m
Waning Crescent, 20% of the Moon is Illuminated
Aug 20
Waning Crescent
Aug 25
New
Sep 2
First Quarter
Sep 8
Full
Sep 15
Last Quarter

Hourly Weather History & Observations

Time (CDT) Temp. Heat Index Dew Point Humidity Pressure Visibility Wind Dir Wind Speed Gust Speed Precip Events Conditions
12:53 AM 79.0 °F - 70.0 °F 74% 29.82 in 10.0 mi WSW 4.6 mph - N/A   Clear
1:53 AM 75.9 °F - 70.0 °F 82% 29.82 in 10.0 mi SSW 5.8 mph - N/A   Clear
2:53 AM 75.0 °F - 69.1 °F 82% 29.83 in 10.0 mi South 4.6 mph - N/A   Clear
3:53 AM 73.9 °F - 68.0 °F 82% 29.85 in 10.0 mi Calm Calm - N/A   Clear
4:53 AM 73.0 °F - 68.0 °F 84% 29.86 in 10.0 mi Calm Calm - N/A   Clear
5:53 AM 71.1 °F - 66.9 °F 87% 29.87 in 9.0 mi Calm Calm - N/A   Clear
6:53 AM 72.0 °F - 68.0 °F 87% 29.90 in 9.0 mi SW 4.6 mph - N/A   Clear
7:53 AM 75.9 °F - 70.0 °F 82% 29.92 in 9.0 mi SSW 5.8 mph - N/A   Clear
8:53 AM 80.1 °F 83.8 °F 72.0 °F 76% 29.94 in 10.0 mi SW 8.1 mph - N/A   Clear
9:53 AM 82.9 °F 88.8 °F 73.0 °F 72% 29.96 in 10.0 mi SW 6.9 mph - N/A   Clear
10:53 AM 87.1 °F 93.6 °F 72.0 °F 61% 29.96 in 10.0 mi SSW 8.1 mph - N/A   Clear
11:53 AM 90.0 °F 99.0 °F 73.9 °F 59% 29.96 in 10.0 mi South 9.2 mph - N/A   Clear
12:53 PM 91.0 °F 99.3 °F 73.0 °F 55% 29.96 in 10.0 mi South 8.1 mph - N/A   Clear
1:53 PM 91.9 °F 99.5 °F 72.0 °F 52% 29.95 in 10.0 mi South 9.2 mph - N/A   Clear
2:53 PM 93.9 °F 99.1 °F 69.1 °F 44% 29.94 in 10.0 mi South 10.4 mph - N/A   Clear
3:53 PM 93.9 °F 100.3 °F 70.0 °F 46% 29.92 in 10.0 mi South 11.5 mph - N/A   Clear
4:53 PM 93.0 °F 100.1 °F 71.1 °F 49% 29.91 in 10.0 mi SSW 10.4 mph - N/A   Clear
5:53 PM 91.0 °F 95.6 °F 69.1 °F 48% 29.89 in 10.0 mi SSW 6.9 mph - N/A   Clear
6:53 PM 88.0 °F 94.7 °F 72.0 °F 59% 29.88 in 10.0 mi SSW 8.1 mph - N/A   Clear
7:53 PM 84.0 °F 89.6 °F 72.0 °F 67% 29.91 in 10.0 mi SSW 5.8 mph - N/A   Clear
8:53 PM 82.9 °F 89.4 °F 73.9 °F 74% 29.95 in 10.0 mi South 6.9 mph - N/A   Clear
9:53 PM 82.0 °F 86.3 °F 71.1 °F 69% 29.97 in 10.0 mi South 6.9 mph - N/A   Clear
10:53 PM 80.1 °F 83.6 °F 71.1 °F 74% 29.98 in 10.0 mi SSW 8.1 mph - N/A   Clear
11:53 PM 79.0 °F - 71.1 °F 77% 29.97 in 10.0 mi SSW 5.8 mph - N/A   Clear